[[{"header":{"parameterUnit":"m.s-1","parameterCategory":2,"la1":30.2991,"la2":30.254,"lo1":-89.0895,"lo2":-89.0444,"dy":0.0017,"dx":0.0017,"nx":28,"ny":28,"refTime":"2025-12-29T09:00:00:Z","depth":"0","parameterNumber":2,"parameterNumberName":"U-component_of_CURRENTS"},"data":[0,0,0,0,0,0,0,0,0,0,0,0,0,0,0,0,0,0,0,0,0,0,0,0,0,0,0,0,0,0,0,0,0,0,0,0,0,0,0,0,0,0,0,0,0,0,0,0,0,0,0,0,0,0,0,0,0,0,-0.1998,-0.1999,0,-0.2007,-0.2007,-0.2007,-0.1995,-0.1994,-0.1994,-0.1994,-0.2021,-0.2022,-0.2023,0,0,0,0,0,0,0,0,0,0,0,0,0,-0.199,-0.199,-0.1998,-0.1999,-0.1999,-0.2007,-0.2007,-0.2007,-0.1995,-0.1994,-0.1994,-0.1993,-0.202,-0.2022,-0.2023,0,0,0,0,0,0,0,0,0,0,0,0,0,-0.1994,-0.199,-0.1998,-0.1995,-0.1995,-0.2007,-0.2007,-0.2007,-0.1995,-0.1994,-0.1994,-0.1993,-0.202,-0.2021,-0.2023,-0.2042,0,0,-0.2028,-0.2028,0,0,0,0,0,0,0,0,-0.1994,-0.1994,-0.1995,-0.1995,-0.1995,-0.2,-0.2014,-0.202,-0.1995,-0.1993,-0.1994,-0.1993,-0.2017,-0.2019,-0.2019,-0.2043,-0.2044,-0.2028,-0.2029,-0.2029,-0.203,0,0,0,0,0,0,0,-0.1994,-0.1994,-0.2,-0.1995,-0.1995,-0.1999,-0.1999,-0.2015,-0.2007,-0.1993,-0.1993,-0.1996,-0.2017,-0.2018,-0.202,-0.2044,-0.2028,-0.2029,-0.203,-0.203,-0.2072,-0.2072,0,0,0,0,0,0,-0.1995,-0.1994,-0.2,-0.2001,-0.1995,-0.1999,-0.1999,-0.1998,-0.2006,-0.2007,-0.1996,-0.1995,-0.2015,-0.2018,-0.2021,-0.2035,-0.2029,-0.2031,-0.2032,-0.2071,-0.2072,-0.2072,0,0,0,0,0,0,-0.1994,-0.1995,-0.2,-0.1999,-0.2,-0.2,-0.1999,-0.1998,-0.1996,-0.2009,-0.201,-0.1995,-0.2015,-0.2018,-0.2027,-0.2036,-0.2031,-0.2033,-0.2071,-0.2072,-0.2072,-0.2069,0,0,0,0,0,0,-0.1994,-0.1995,-0.1991,-0.1999,-0.2,-0.2006,-0.1999,-0.1999,-0.2,-0.1999,-0.2008,-0.201,-0.2015,-0.2025,-0.2029,-0.2038,-0.2034,-0.2071,-0.2071,-0.2072,-0.2069,-0.2069,-0.2069,0,0,0,0,0,-0.1994,-0.1993,-0.1991,-0.1992,-0.1996,-0.2006,-0.2007,-0.2005,-0.2,-0.2001,-0.2002,-0.2009,-0.203,-0.2026,-0.2031,-0.2041,-0.2071,-0.2071,-0.2072,-0.2069,-0.2069,-0.2069,0,0,0,0,0,0,-0.1987,-0.1992,-0.199,-0.199,-0.1997,-0.2004,-0.2005,-0.2005,-0.2007,-0.2005,-0.2011,-0.2014,-0.2027,-0.2033,-0.2029,-0.2053,-0.2052,-0.2054,-0.2049,-0.2049,-0.2049,-0.2053,-0.2035,0,0,0,0,0,-0.1985,-0.1983,-0.1992,-0.1991,-0.1995,-0.2,-0.2002,-0.2004,-0.2008,-0.2008,-0.2013,-0.2021,-0.2034,-0.2039,-0.2051,-0.2064,-0.2053,-0.2074,-0.2074,-0.2074,-0.208,-0.207,-0.207,-0.2073,-0.2073,-0.2073,0,0,-0.1981,-0.1984,-0.1982,-0.1989,-0.1993,-0.2003,-0.1999,-0.2006,-0.2013,-0.2013,-0.2019,-0.2025,-0.2038,-0.205,-0.2057,-0.2055,-0.2062,-0.2075,-0.2075,-0.208,-0.207,-0.207,-0.207,-0.2074,-0.2073,-0.2073,0,0,-0.1977,-0.1976,-0.1977,-0.1985,-0.1995,-0.2003,-0.2005,-0.2013,-0.2014,-0.2023,-0.2025,-0.2033,-0.2049,-0.2058,-0.2066,-0.2077,-0.2065,-0.2081,-0.2085,-0.2075,-0.2074,-0.2074,-0.2034,-0.203,-0.2079,-0.2079,-0.2079,0,-0.1973,-0.1974,-0.1979,-0.1987,-0.1994,-0.2003,-0.2012,-0.202,-0.2028,-0.2031,-0.2025,-0.2045,-0.2055,-0.2074,-0.2075,-0.2079,-0.2058,-0.2082,-0.2075,-0.2074,-0.2074,-0.2033,-0.2029,-0.2079,-0.2079,-0.2079,-0.2079,0,-0.1973,-0.1977,-0.198,-0.1992,-0.2002,-0.2011,-0.2027,-0.2034,-0.2037,-0.2043,-0.2055,-0.2061,-0.2072,-0.2077,-0.208,-0.2087,-0.2067,-0.2076,-0.2072,-0.2073,-0.203,-0.2026,-0.2079,-0.2079,-0.2079,-0.2079,0,0,-0.1954,-0.1975,-0.1976,-0.1982,-0.2006,-0.2013,-0.2032,-0.2049,-0.2057,-0.2063,-0.2069,-0.2088,-0.2086,-0.2095,-0.2098,-0.2091,-0.2063,-0.2081,-0.208,-0.2038,-0.2013,-0.1942,-0.193,-0.2067,-0.2067,-0.2067,-0.1975,0,-0.1951,-0.1963,-0.1978,-0.1992,-0.1999,-0.2021,-0.2038,-0.2056,-0.2066,-0.2074,-0.2083,-0.2092,-0.2095,-0.2095,-0.2091,-0.2079,-0.2055,-0.2086,-0.2022,-0.202,-0.1954,-0.1924,-0.184,-0.1746,-0.197,-0.197,-0.1969,0,-0.1944,-0.1953,-0.1963,-0.1988,-0.1994,-0.2006,-0.203,-0.2047,-0.2071,-0.2078,-0.209,-0.2096,-0.2098,-0.2095,-0.2064,-0.208,-0.2045,-0.2027,-0.2023,-0.1958,-0.1941,-0.1787,-0.1729,-0.1652,-0.1962,-0.1963,-0.1963,0,-0.1917,-0.1942,-0.1947,-0.1955,-0.1987,-0.1995,-0.2012,-0.2041,-0.205,-0.2076,-0.2078,-0.2089,-0.2079,-0.206,-0.2028,-0.2041,-0.1976,-0.199,-0.1886,-0.1879,-0.1797,-0.1783,-0.1657,-0.1953,-0.1953,-0.1953,-0.1954,0,-0.1903,-0.1906,-0.1932,-0.1933,-0.194,-0.1972,-0.1981,-0.2005,-0.2031,-0.2033,-0.207,-0.2063,-0.2069,-0.2039,-0.2015,-0.1926,-0.1961,-0.1873,-0.1852,-0.179,-0.1777,-0.17,-0.1711,-0.195,-0.1951,-0.1951,-0.1952,0,-0.1864,-0.1885,-0.1889,-0.1917,-0.1924,-0.1925,-0.1952,-0.1957,-0.1995,-0.1995,-0.2,-0.2025,-0.1983,-0.197,-0.1924,-0.1886,-0.1767,-0.1786,-0.1697,-0.1666,-0.1497,-0.1513,-0.1415,-0.1362,-0.1649,-0.1646,-0.1644,0,-0.1841,-0.1838,-0.1861,-0.1857,-0.1865,-0.1875,-0.1877,-0.1924,-0.1929,-0.1961,-0.1949,-0.193,-0.1893,-0.1802,-0.174,-0.1659,-0.1654,-0.1528,-0.1547,-0.1456,-0.1459,-0.1493,-0.146,-0.1424,-0.142,-0.1418,-0.1415,0,-0.1789,-0.1798,-0.1798,-0.1791,-0.1789,-0.1794,-0.1802,-0.1803,-0.1848,-0.1851,-0.1832,-0.1809,-0.1733,-0.1618,-0.1527,-0.1474,-0.1457,-0.1463,-0.1399,-0.1291,-0.1291,-0.124,-0.1503,-0.1389,-0.1392,-0.1394,-0.1395,-0.1396,-0.1738,-0.1723,-0.1717,-0.1704,-0.1707,-0.1691,-0.1655,-0.1677,-0.1665,-0.1644,-0.1688,-0.1626,-0.153,-0.1389,-0.1312,-0.1139,-0.1246,-0.1093,-0.1121,-0.1163,-0.1108,-0.1296,-0.1149,-0.115,-0.1151,-0.1152,-0.1153,0,-0.1657,-0.1642,-0.1627,-0.1598,-0.1562,-0.1596,-0.1579,-0.153,-0.1477,-0.1497,-0.1468,-0.1381,-0.1221,-0.1123,-0.0951,-0.0834,-0.0817,-0.0785,-0.0811,-0.0796,-0.0962,-0.0945,-0.071,-0.071,-0.071,-0.071,-0.071,-0.0711,-0.1609,-0.1559,-0.1547,-0.1453,-0.1432,-0.1341,-0.1309,-0.1265,-0.1252,-0.1197,-0.1175,-0.1202,-0.1153,-0.095,-0.0714,-0.0632,-0.0577,-0.0552,-0.0569,-0.0679,-0.071,-0.074,-0.0722,-0.0445,-0.0445,-0.0361,-0.0361,-0.036]},{"header":{"parameterUnit":"m.s-1","parameterCategory":2,"la1":30.2991,"la2":30.254,"lo1":-89.0895,"lo2":-89.0444,"dy":0.0017,"dx":0.0017,"nx":28,"ny":28,"refTime":"2025-12-29T09:00:00:Z","depth":"0","parameterNumber":3,"parameterNumberName":"V-component_of_CURRENTS"},"data":[0,0,0,0,0,0,0,0,0,0,0,0,0,0,0,0,0,0,0,0,0,0,0,0,0,0,0,0,0,0,0,0,0,0,0,0,0,0,0,0,0,0,0,0,0,0,0,0,0,0,0,0,0,0,0,0,0,0,-0.0589,-0.0589,0,-0.0571,-0.0571,-0.0571,-0.0547,-0.0546,-0.0546,-0.0546,-0.0468,-0.0467,-0.0465,0,0,0,0,0,0,0,0,0,0,0,0,0,-0.058,-0.058,-0.0589,-0.0589,-0.0589,-0.0571,-0.0571,-0.0571,-0.0547,-0.0546,-0.0546,-0.0546,-0.0469,-0.0467,-0.0465,0,0,0,0,0,0,0,0,0,0,0,0,0,-0.0574,-0.058,-0.0589,-0.0576,-0.0574,-0.0571,-0.0571,-0.0571,-0.0547,-0.0546,-0.0546,-0.0546,-0.047,-0.0467,-0.0464,-0.0457,0,0,-0.0456,-0.0455,0,0,0,0,0,0,0,0,-0.0575,-0.0574,-0.0578,-0.0577,-0.0575,-0.0562,-0.0539,-0.053,-0.0547,-0.0556,-0.0546,-0.0545,-0.0495,-0.049,-0.0487,-0.0453,-0.045,-0.0456,-0.0454,-0.0453,-0.0453,0,0,0,0,0,0,0,-0.0575,-0.0575,-0.0581,-0.0578,-0.0576,-0.0563,-0.0562,-0.0538,-0.0526,-0.0555,-0.0554,-0.0554,-0.0494,-0.049,-0.0485,-0.0449,-0.0456,-0.0454,-0.0452,-0.0451,-0.0414,-0.0415,0,0,0,0,0,0,-0.0581,-0.0576,-0.0582,-0.0581,-0.0575,-0.0564,-0.0562,-0.0566,-0.0528,-0.0523,-0.0554,-0.0553,-0.0495,-0.0488,-0.0482,-0.0473,-0.0453,-0.0451,-0.0449,-0.0414,-0.0415,-0.0415,0,0,0,0,0,0,-0.0581,-0.0582,-0.0582,-0.0578,-0.0577,-0.0564,-0.0568,-0.0566,-0.0561,-0.0528,-0.0521,-0.0552,-0.0494,-0.0486,-0.0471,-0.0469,-0.045,-0.0447,-0.0413,-0.0414,-0.0415,-0.0453,0,0,0,0,0,0,-0.0581,-0.0582,-0.0586,-0.0579,-0.0578,-0.0584,-0.0569,-0.0566,-0.0562,-0.056,-0.0524,-0.0517,-0.0493,-0.0476,-0.0469,-0.0465,-0.0445,-0.0412,-0.0414,-0.0415,-0.0451,-0.0455,-0.0458,0,0,0,0,0,-0.0581,-0.0589,-0.0586,-0.0587,-0.0584,-0.0585,-0.0583,-0.0571,-0.0562,-0.0564,-0.0546,-0.0518,-0.0478,-0.0474,-0.0466,-0.0462,-0.0412,-0.0413,-0.0415,-0.0449,-0.0454,-0.0458,0,0,0,0,0,0,-0.0585,-0.0588,-0.0584,-0.0592,-0.059,-0.0581,-0.0581,-0.0574,-0.0561,-0.0558,-0.0525,-0.0517,-0.0504,-0.0482,-0.0479,-0.0457,-0.044,-0.044,-0.0469,-0.0473,-0.0477,-0.0481,-0.0443,0,0,0,0,0,-0.0589,-0.0597,-0.0595,-0.0601,-0.0601,-0.0592,-0.059,-0.0584,-0.0573,-0.0567,-0.0544,-0.0522,-0.0505,-0.0489,-0.0472,-0.0457,-0.0428,-0.045,-0.0454,-0.0457,-0.0456,-0.0419,-0.0418,-0.042,-0.042,-0.042,0,0,-0.0592,-0.0594,-0.0598,-0.0602,-0.0598,-0.0607,-0.0589,-0.059,-0.0594,-0.056,-0.0555,-0.0535,-0.0506,-0.0495,-0.0486,-0.0473,-0.0443,-0.0459,-0.0462,-0.0459,-0.042,-0.0419,-0.0419,-0.0421,-0.0421,-0.0421,0,0,-0.0606,-0.0604,-0.0618,-0.062,-0.0621,-0.0617,-0.0619,-0.0613,-0.0605,-0.0602,-0.058,-0.0561,-0.0535,-0.0513,-0.0499,-0.0513,-0.0469,-0.0508,-0.0521,-0.0486,-0.0485,-0.0484,-0.045,-0.0446,-0.0504,-0.0504,-0.0504,0,-0.0609,-0.0627,-0.0621,-0.0635,-0.064,-0.0624,-0.064,-0.0632,-0.0622,-0.0615,-0.0605,-0.0569,-0.0542,-0.0523,-0.053,-0.0519,-0.0494,-0.0505,-0.0489,-0.0488,-0.0486,-0.0451,-0.0446,-0.0506,-0.0506,-0.0506,-0.0506,0,-0.0637,-0.0649,-0.0657,-0.0671,-0.0675,-0.0685,-0.0678,-0.0675,-0.0663,-0.0651,-0.0633,-0.06,-0.0576,-0.0565,-0.055,-0.0528,-0.0514,-0.0502,-0.0475,-0.0488,-0.0451,-0.0445,-0.0509,-0.0508,-0.0508,-0.0507,0,0,-0.065,-0.0673,-0.0676,-0.0691,-0.0697,-0.0704,-0.0708,-0.0706,-0.0706,-0.0682,-0.0673,-0.0642,-0.0618,-0.0601,-0.0574,-0.0541,-0.0507,-0.0519,-0.0516,-0.0482,-0.0429,-0.0435,-0.0428,-0.0492,-0.0491,-0.049,-0.0409,0,-0.0675,-0.0713,-0.0714,-0.0745,-0.0765,-0.0753,-0.0759,-0.0751,-0.0735,-0.0721,-0.0676,-0.0658,-0.0633,-0.062,-0.0583,-0.0533,-0.0492,-0.0531,-0.0425,-0.0422,-0.0423,-0.0422,-0.0468,-0.0401,-0.0403,-0.0401,-0.0401,0,-0.0706,-0.0728,-0.0766,-0.0789,-0.0795,-0.0807,-0.0812,-0.0814,-0.0784,-0.0768,-0.0735,-0.0701,-0.0655,-0.0628,-0.0535,-0.0562,-0.0498,-0.0451,-0.0446,-0.0434,-0.0416,-0.0388,-0.0389,-0.034,-0.039,-0.0391,-0.0392,0,-0.0732,-0.0764,-0.0797,-0.0807,-0.0827,-0.0836,-0.0841,-0.0828,-0.0828,-0.0794,-0.0784,-0.0725,-0.0691,-0.0613,-0.0522,-0.0526,-0.0413,-0.0403,-0.0343,-0.0342,-0.035,-0.0353,-0.0288,-0.0322,-0.0322,-0.0322,-0.0323,0,-0.0767,-0.0792,-0.0812,-0.0833,-0.0866,-0.0866,-0.0887,-0.088,-0.0864,-0.0864,-0.0809,-0.0788,-0.0684,-0.061,-0.0527,-0.0421,-0.0412,-0.0343,-0.0321,-0.0367,-0.0371,-0.0304,-0.0244,-0.0319,-0.032,-0.0321,-0.0321,0,-0.0797,-0.081,-0.085,-0.0876,-0.0884,-0.0908,-0.0924,-0.0936,-0.0913,-0.0908,-0.0898,-0.0827,-0.074,-0.0632,-0.0499,-0.0428,-0.0275,-0.0283,-0.0347,-0.0335,-0.0253,-0.0193,-0.0035,0.0037,-0.0212,-0.0212,-0.0212,0,-0.0817,-0.0841,-0.0883,-0.0908,-0.0922,-0.0951,-0.0971,-0.0964,-0.097,-0.0934,-0.093,-0.0848,-0.0794,-0.0608,-0.0483,-0.0341,-0.0241,-0.0274,-0.0289,-0.0252,-0.0168,-0.0103,-0.0049,-0.0311,-0.0312,-0.0312,-0.0313,0,-0.0853,-0.0867,-0.09,-0.095,-0.0982,-0.1015,-0.1035,-0.1046,-0.1031,-0.1019,-0.0983,-0.0938,-0.0782,-0.0663,-0.0479,-0.0386,-0.0224,-0.0279,-0.022,-0.0223,-0.0165,-0.0086,-0.0359,-0.0317,-0.0316,-0.0316,-0.0316,-0.0316,-0.0874,-0.0906,-0.0947,-0.0994,-0.1032,-0.1067,-0.1084,-0.1096,-0.1103,-0.1082,-0.1035,-0.0977,-0.0814,-0.0582,-0.047,-0.03,-0.0221,-0.0246,-0.017,-0.0102,-0.0054,-0.0338,-0.0288,-0.0288,-0.0287,-0.0287,-0.0286,0,-0.0896,-0.0934,-0.0984,-0.1038,-0.1081,-0.1091,-0.1118,-0.1122,-0.1125,-0.112,-0.1086,-0.0965,-0.0789,-0.0603,-0.0368,-0.0227,-0.0143,-0.0136,-0.0067,-0.0009,-0.0264,-0.0295,-0.027,-0.027,-0.027,-0.027,-0.027,-0.027,-0.091,-0.0962,-0.0991,-0.1066,-0.1099,-0.1135,-0.1146,-0.1149,-0.1141,-0.1124,-0.1086,-0.1058,-0.0819,-0.0409,-0.0163,-0.0103,0.0067,0.0079,0.0213,-0.001,-0.0015,-0.0021,-0.0039,0.0039,0.004,0.0418,0.0421,0.0424]}],[{"header":{"parameterUnit":"m.s-1","parameterCategory":2,"la1":30.2991,"la2":30.254,"lo1":-89.0895,"lo2":-89.0444,"dy":0.0017,"dx":0.0017,"nx":28,"ny":28,"refTime":"2025-12-29T09:00:00:Z","depth":"2","parameterNumber":2,"parameterNumberName":"U-component_of_CURRENTS"},"data":[0,0,0,0,0,0,0,0,0,0,0,0,0,0,0,0,0,0,0,0,0,0,0,0,0,0,0,0,0,0,0,0,0,0,0,0,0,0,0,0,0,0,0,0,0,0,0,0,0,0,0,0,0,0,0,0,0,0,-0.1987,-0.1987,0,-0.1996,-0.1996,-0.1996,-0.1985,-0.1985,-0.1984,-0.1984,-0.2012,-0.2013,-0.2014,0,0,0,0,0,0,0,0,0,0,0,0,0,-0.1977,-0.1977,-0.1986,-0.1987,-0.1987,-0.1996,-0.1996,-0.1996,-0.1985,-0.1985,-0.1984,-0.1984,-0.2011,-0.2012,-0.2014,0,0,0,0,0,0,0,0,0,0,0,0,0,-0.1982,-0.1977,-0.1986,-0.1984,-0.1983,-0.1996,-0.1996,-0.1996,-0.1985,-0.1985,-0.1984,-0.1984,-0.2011,-0.2012,-0.2014,-0.2032,0,0,-0.2018,-0.2019,0,0,0,0,0,0,0,0,-0.1982,-0.1982,-0.1984,-0.1984,-0.1984,-0.199,-0.2003,-0.2009,-0.1985,-0.1983,-0.1984,-0.1984,-0.2007,-0.2009,-0.201,-0.2033,-0.2034,-0.2019,-0.202,-0.202,-0.2021,0,0,0,0,0,0,0,-0.1981,-0.1982,-0.1989,-0.1984,-0.1984,-0.1988,-0.1988,-0.2004,-0.1997,-0.1983,-0.1983,-0.1986,-0.2007,-0.2008,-0.201,-0.2035,-0.2019,-0.202,-0.2021,-0.2021,-0.2063,-0.2063,0,0,0,0,0,0,-0.1982,-0.1982,-0.1989,-0.1989,-0.1983,-0.1989,-0.1988,-0.1987,-0.1996,-0.1997,-0.1986,-0.1985,-0.2006,-0.2009,-0.2011,-0.2026,-0.202,-0.2022,-0.2022,-0.2063,-0.2063,-0.2063,0,0,0,0,0,0,-0.1982,-0.1983,-0.1988,-0.1987,-0.1988,-0.1989,-0.1988,-0.1988,-0.1987,-0.1999,-0.2,-0.1985,-0.2006,-0.2009,-0.2019,-0.2028,-0.2022,-0.2024,-0.2063,-0.2063,-0.2063,-0.2061,0,0,0,0,0,0,-0.1982,-0.1983,-0.198,-0.1987,-0.1988,-0.1994,-0.1989,-0.1988,-0.199,-0.1989,-0.1999,-0.2001,-0.2006,-0.2016,-0.202,-0.203,-0.2025,-0.2063,-0.2063,-0.2063,-0.2061,-0.2061,-0.2062,0,0,0,0,0,-0.1981,-0.1981,-0.1979,-0.198,-0.1985,-0.1995,-0.1996,-0.1994,-0.199,-0.1991,-0.1993,-0.2,-0.2021,-0.2017,-0.2022,-0.2032,-0.2062,-0.2063,-0.2063,-0.2061,-0.2061,-0.2062,0,0,0,0,0,0,-0.1975,-0.198,-0.1978,-0.1979,-0.1986,-0.1993,-0.1994,-0.1995,-0.1997,-0.1996,-0.2002,-0.2005,-0.2019,-0.2025,-0.202,-0.2045,-0.2044,-0.2045,-0.204,-0.2041,-0.2041,-0.2044,-0.2026,0,0,0,0,0,-0.1973,-0.1971,-0.1981,-0.198,-0.1984,-0.1989,-0.1992,-0.1994,-0.1999,-0.1999,-0.2004,-0.2013,-0.2025,-0.2031,-0.2043,-0.2056,-0.2045,-0.2066,-0.2066,-0.2066,-0.2072,-0.2062,-0.2062,-0.2065,-0.2065,-0.2065,0,0,-0.1969,-0.1972,-0.1971,-0.1978,-0.1982,-0.1992,-0.1989,-0.1996,-0.2004,-0.2003,-0.2011,-0.2016,-0.2029,-0.2042,-0.2049,-0.2047,-0.2055,-0.2067,-0.2067,-0.2072,-0.2063,-0.2062,-0.2062,-0.2065,-0.2065,-0.2065,0,0,-0.1966,-0.1966,-0.1966,-0.1975,-0.1985,-0.1992,-0.1995,-0.2003,-0.2005,-0.2015,-0.2017,-0.2024,-0.2041,-0.205,-0.2058,-0.2069,-0.2058,-0.2074,-0.2078,-0.2068,-0.2068,-0.2067,-0.2029,-0.2025,-0.2072,-0.2072,-0.2072,0,-0.1962,-0.1963,-0.1968,-0.1976,-0.1984,-0.1993,-0.2001,-0.201,-0.2019,-0.2022,-0.2017,-0.2037,-0.2047,-0.2066,-0.2068,-0.2072,-0.2052,-0.2074,-0.2068,-0.2068,-0.2067,-0.2028,-0.2024,-0.2072,-0.2072,-0.2072,-0.2072,0,-0.1962,-0.1966,-0.197,-0.1981,-0.1992,-0.2,-0.2017,-0.2024,-0.2027,-0.2034,-0.2046,-0.2053,-0.2064,-0.2069,-0.2073,-0.208,-0.206,-0.207,-0.2065,-0.2067,-0.2025,-0.2021,-0.2072,-0.2072,-0.2072,-0.2072,0,0,-0.1944,-0.1965,-0.1965,-0.1971,-0.1995,-0.2002,-0.2022,-0.2038,-0.2047,-0.2054,-0.2059,-0.2079,-0.2077,-0.2087,-0.209,-0.2084,-0.2057,-0.2074,-0.2074,-0.2032,-0.2009,-0.1937,-0.1925,-0.2061,-0.2061,-0.2061,-0.1972,0,-0.1941,-0.1952,-0.1967,-0.1981,-0.1988,-0.201,-0.2027,-0.2045,-0.2056,-0.2064,-0.2074,-0.2082,-0.2087,-0.2087,-0.2084,-0.2072,-0.2049,-0.2079,-0.2017,-0.2015,-0.1949,-0.192,-0.1771,-0.1674,-0.1967,-0.1967,-0.1966,0,-0.1934,-0.1943,-0.1952,-0.1977,-0.1983,-0.1995,-0.2018,-0.2035,-0.2059,-0.2067,-0.2079,-0.2085,-0.2088,-0.2086,-0.2057,-0.2073,-0.2039,-0.2021,-0.2018,-0.1953,-0.1936,-0.1726,-0.1655,-0.1959,-0.1959,-0.196,-0.196,0,-0.1907,-0.1932,-0.1936,-0.1945,-0.1976,-0.1984,-0.2,-0.2029,-0.2039,-0.2064,-0.2067,-0.2079,-0.207,-0.2052,-0.2021,-0.2035,-0.1971,-0.1986,-0.1883,-0.1876,-0.1739,-0.1721,-0.195,-0.195,-0.195,-0.195,-0.1951,0,-0.1893,-0.1896,-0.1922,-0.1923,-0.1929,-0.1961,-0.197,-0.1994,-0.202,-0.2021,-0.2059,-0.2052,-0.206,-0.2031,-0.2008,-0.1921,-0.1956,-0.187,-0.1849,-0.1731,-0.1714,-0.1965,-0.1968,-0.1947,-0.1948,-0.1948,-0.1949,0,-0.1854,-0.1875,-0.1879,-0.1907,-0.1913,-0.1915,-0.1942,-0.1946,-0.1984,-0.1984,-0.1989,-0.2015,-0.1975,-0.1963,-0.192,-0.1882,-0.1826,-0.1784,-0.1631,-0.1594,-0.1737,-0.1741,-0.1655,-0.1652,-0.1649,-0.1647,-0.1645,0,-0.1832,-0.1829,-0.1852,-0.1848,-0.1855,-0.1865,-0.1867,-0.1914,-0.1918,-0.195,-0.1938,-0.192,-0.1881,-0.1793,-0.1715,-0.163,-0.1728,-0.1461,-0.147,-0.1718,-0.1707,-0.1715,-0.1723,-0.1273,-0.1268,-0.1264,-0.1261,0,-0.1781,-0.179,-0.179,-0.1782,-0.1781,-0.1784,-0.1793,-0.1793,-0.1837,-0.1836,-0.1817,-0.1791,-0.1701,-0.1546,-0.1451,-0.1395,-0.147,-0.1378,-0.1662,-0.1384,-0.1354,-0.1345,-0.1365,-0.1226,-0.1229,-0.1232,-0.1234,-0.1235,-0.173,-0.1715,-0.171,-0.1696,-0.1699,-0.1682,-0.1646,-0.1655,-0.1637,-0.159,-0.1643,-0.154,-0.1499,-0.1265,-0.1169,-0.1091,-0.1213,-0.1167,-0.118,-0.1198,-0.1183,-0.1151,-0.098,-0.0982,-0.0983,-0.0985,-0.0986,0,-0.1645,-0.1635,-0.162,-0.159,-0.1549,-0.1588,-0.1571,-0.1504,-0.143,-0.1405,-0.1348,-0.117,-0.1034,-0.1006,-0.0816,-0.0773,-0.0774,-0.0749,-0.076,-0.0794,-0.0825,-0.0794,-0.0486,-0.0485,-0.0483,-0.0482,0,0,-0.1597,-0.1545,-0.1533,-0.1437,-0.142,-0.1322,-0.1289,-0.1212,-0.1161,-0.105,-0.0977,-0.0983,-0.0989,-0.0751,-0.0678,-0.0559,-0.0677,-0.0517,-0.0917,-0.0967,-0.0997,-0.106,-0.1049,0,0,0,0,0]},{"header":{"parameterUnit":"m.s-1","parameterCategory":2,"la1":30.2991,"la2":30.254,"lo1":-89.0895,"lo2":-89.0444,"dy":0.0017,"dx":0.0017,"nx":28,"ny":28,"refTime":"2025-12-29T09:00:00:Z","depth":"2","parameterNumber":3,"parameterNumberName":"V-component_of_CURRENTS"},"data":[0,0,0,0,0,0,0,0,0,0,0,0,0,0,0,0,0,0,0,0,0,0,0,0,0,0,0,0,0,0,0,0,0,0,0,0,0,0,0,0,0,0,0,0,0,0,0,0,0,0,0,0,0,0,0,0,0,0,-0.0517,-0.0517,0,-0.05,-0.0499,-0.0499,-0.0476,-0.0476,-0.0476,-0.0475,-0.0399,-0.0398,-0.0396,0,0,0,0,0,0,0,0,0,0,0,0,0,-0.0508,-0.0508,-0.0517,-0.0517,-0.0517,-0.05,-0.0499,-0.0499,-0.0476,-0.0476,-0.0475,-0.0475,-0.04,-0.0398,-0.0396,0,0,0,0,0,0,0,0,0,0,0,0,0,-0.0502,-0.0508,-0.0517,-0.0504,-0.0503,-0.05,-0.0499,-0.0499,-0.0476,-0.0476,-0.0475,-0.0475,-0.0401,-0.0398,-0.0396,-0.0387,0,0,-0.0387,-0.0386,0,0,0,0,0,0,0,0,-0.0503,-0.0502,-0.0506,-0.0505,-0.0504,-0.0491,-0.0468,-0.0459,-0.0476,-0.0485,-0.0475,-0.0475,-0.0426,-0.0421,-0.0418,-0.0384,-0.0381,-0.0387,-0.0386,-0.0384,-0.0384,0,0,0,0,0,0,0,-0.0503,-0.0503,-0.0509,-0.0506,-0.0505,-0.0491,-0.049,-0.0466,-0.0456,-0.0484,-0.0483,-0.0483,-0.0424,-0.042,-0.0416,-0.038,-0.0387,-0.0385,-0.0383,-0.0382,-0.0348,-0.0348,0,0,0,0,0,0,-0.0509,-0.0504,-0.051,-0.0509,-0.0503,-0.0492,-0.0491,-0.0494,-0.0457,-0.0452,-0.0483,-0.0482,-0.0425,-0.0419,-0.0413,-0.0405,-0.0385,-0.0382,-0.0381,-0.0347,-0.0348,-0.0348,0,0,0,0,0,0,-0.0509,-0.051,-0.051,-0.0506,-0.0505,-0.0493,-0.0497,-0.0494,-0.049,-0.0457,-0.0451,-0.0482,-0.0425,-0.0416,-0.0402,-0.0402,-0.0381,-0.0378,-0.0346,-0.0347,-0.0348,-0.0387,0,0,0,0,0,0,-0.0509,-0.051,-0.0514,-0.0507,-0.0506,-0.0512,-0.0497,-0.0494,-0.0491,-0.0489,-0.0454,-0.0447,-0.0424,-0.0407,-0.04,-0.0398,-0.0376,-0.0345,-0.0347,-0.0348,-0.0385,-0.039,-0.0393,0,0,0,0,0,-0.0509,-0.0518,-0.0515,-0.0515,-0.0512,-0.0513,-0.0511,-0.05,-0.0492,-0.0494,-0.0476,-0.0448,-0.0409,-0.0405,-0.0397,-0.0394,-0.0345,-0.0346,-0.0348,-0.0383,-0.0389,-0.0393,0,0,0,0,0,0,-0.0513,-0.0516,-0.0513,-0.0521,-0.0519,-0.0509,-0.051,-0.0503,-0.0491,-0.0488,-0.0456,-0.0448,-0.0436,-0.0414,-0.041,-0.039,-0.0372,-0.0372,-0.0402,-0.0407,-0.0411,-0.0415,-0.0374,0,0,0,0,0,-0.0518,-0.0526,-0.0524,-0.053,-0.053,-0.0521,-0.0519,-0.0513,-0.0503,-0.0497,-0.0475,-0.0453,-0.0437,-0.0422,-0.0405,-0.039,-0.0361,-0.0385,-0.0389,-0.0392,-0.0391,-0.0355,-0.0355,-0.0353,-0.0353,-0.0353,0,0,-0.0521,-0.0524,-0.0527,-0.0531,-0.0528,-0.0536,-0.0519,-0.052,-0.0524,-0.049,-0.0486,-0.0467,-0.0438,-0.0428,-0.042,-0.0407,-0.0379,-0.0394,-0.0397,-0.0394,-0.0356,-0.0356,-0.0356,-0.0354,-0.0354,-0.0354,0,0,-0.0535,-0.0534,-0.0548,-0.055,-0.0551,-0.0547,-0.0549,-0.0543,-0.0537,-0.0534,-0.0513,-0.0495,-0.0469,-0.0448,-0.0434,-0.0449,-0.0405,-0.0445,-0.046,-0.0425,-0.0424,-0.0424,-0.0389,-0.0385,-0.0442,-0.0442,-0.0442,0,-0.0539,-0.0557,-0.055,-0.0565,-0.057,-0.0555,-0.057,-0.0563,-0.0553,-0.0547,-0.0538,-0.0503,-0.0477,-0.046,-0.0468,-0.0456,-0.0431,-0.0442,-0.0429,-0.0428,-0.0426,-0.0391,-0.0385,-0.0444,-0.0444,-0.0443,-0.0443,0,-0.0567,-0.058,-0.0587,-0.0602,-0.0605,-0.0616,-0.0609,-0.0607,-0.0596,-0.0585,-0.0568,-0.0537,-0.0513,-0.0504,-0.0489,-0.0469,-0.0453,-0.0442,-0.0415,-0.0428,-0.0391,-0.0384,-0.0447,-0.0446,-0.0445,-0.0445,0,0,-0.0581,-0.0603,-0.0606,-0.0621,-0.0627,-0.0635,-0.0639,-0.0639,-0.0639,-0.0617,-0.061,-0.058,-0.0558,-0.0541,-0.0515,-0.0483,-0.0451,-0.0461,-0.0458,-0.0423,-0.0373,-0.0378,-0.0372,-0.0436,-0.0435,-0.0435,-0.0352,0,-0.0606,-0.0643,-0.0644,-0.0676,-0.0695,-0.0684,-0.0691,-0.0684,-0.0669,-0.0656,-0.0613,-0.0598,-0.0573,-0.0561,-0.0526,-0.0476,-0.0436,-0.0474,-0.0368,-0.0365,-0.0364,-0.0365,-0.0285,-0.0206,-0.0345,-0.0344,-0.0343,0,-0.0637,-0.0658,-0.0696,-0.0719,-0.0726,-0.0739,-0.0745,-0.0747,-0.072,-0.0705,-0.0674,-0.0641,-0.0597,-0.0571,-0.048,-0.0506,-0.0443,-0.0396,-0.0391,-0.0377,-0.0359,-0.0215,-0.0189,-0.0333,-0.0333,-0.0334,-0.0335,0,-0.0663,-0.0695,-0.0728,-0.0738,-0.0758,-0.0769,-0.0774,-0.0762,-0.0764,-0.0732,-0.0722,-0.0666,-0.0633,-0.0557,-0.0467,-0.0471,-0.0359,-0.0349,-0.0288,-0.0287,-0.0188,-0.0181,-0.027,-0.027,-0.027,-0.027,-0.027,0,-0.0697,-0.0723,-0.0744,-0.0764,-0.0798,-0.0798,-0.082,-0.0815,-0.08,-0.0801,-0.0748,-0.0728,-0.0627,-0.0554,-0.0472,-0.0366,-0.0358,-0.0288,-0.0266,-0.0202,-0.0197,-0.0284,-0.0286,-0.0267,-0.0268,-0.0268,-0.0269,0,-0.0727,-0.074,-0.0781,-0.0807,-0.0816,-0.0841,-0.0858,-0.087,-0.0849,-0.0845,-0.0836,-0.0767,-0.0681,-0.0574,-0.0443,-0.0372,-0.0271,-0.0227,-0.0165,-0.0138,-0.0219,-0.0225,-0.0156,-0.0155,-0.0155,-0.0155,-0.0154,0,-0.0747,-0.0772,-0.0815,-0.084,-0.0855,-0.0884,-0.0904,-0.0898,-0.0904,-0.087,-0.0867,-0.0786,-0.0728,-0.0543,-0.038,-0.0227,-0.0251,-0.0085,-0.0084,-0.0222,-0.0207,-0.0213,-0.022,0.0042,0.0044,0.0045,0.0047,0,-0.0783,-0.0798,-0.0831,-0.0882,-0.0914,-0.0947,-0.0968,-0.0978,-0.0964,-0.0948,-0.0912,-0.0863,-0.0673,-0.0468,-0.0272,-0.0173,-0.0112,-0.0053,-0.0182,-0.0024,-0.0035,-0.0021,-0.0033,0.006,0.0059,0.0058,0.0057,0.0057,-0.0805,-0.0837,-0.0878,-0.0925,-0.0964,-0.0998,-0.1015,-0.1005,-0.1003,-0.0928,-0.0912,-0.0765,-0.0606,-0.0275,-0.0136,0.002,-0.0026,0.0043,0.0039,0.0033,0.0017,0.0004,0.0105,0.0104,0.0103,0.0102,0.0101,0,-0.0818,-0.0865,-0.0915,-0.0969,-0.1,-0.1022,-0.1048,-0.1008,-0.0974,-0.0873,-0.0795,-0.0555,-0.0337,-0.0173,0.0101,0.0195,0.0216,0.0211,0.0239,0.0226,0.0214,0.0206,0.0345,0.0346,0.0346,0.0347,0,0,-0.0829,-0.0877,-0.0905,-0.0972,-0.1015,-0.1023,-0.1032,-0.0953,-0.0853,-0.0709,-0.0571,-0.0444,-0.0278,-0.0045,0.0097,0.0243,0.0205,0.0263,0.0067,0.0074,0.006,0.0125,0.0099,0,0,0,0,0]}],[{"header":{"parameterUnit":"m.s-1","parameterCategory":2,"la1":30.2991,"la2":30.254,"lo1":-89.0895,"lo2":-89.0444,"dy":0.0017,"dx":0.0017,"nx":28,"ny":28,"refTime":"2025-12-29T09:00:00:Z","depth":"4","parameterNumber":2,"parameterNumberName":"U-component_of_CURRENTS"},"data":[0,0,0,0,0,0,0,0,0,0,0,0,0,0,0,0,0,0,0,0,0,0,0,0,0,0,0,0,0,0,0,0,0,0,0,0,0,0,0,0,0,0,0,0,0,0,0,0,0,0,0,0,0,0,0,0,0,0,-0.1386,-0.1386,0,-0.1437,-0.1437,-0.1438,-0.1476,-0.1476,-0.1477,-0.1477,-0.1554,-0.1555,-0.1557,0,0,0,0,0,0,0,0,0,0,0,0,0,-0.1338,-0.1339,-0.1386,-0.1386,-0.1387,-0.1437,-0.1437,-0.1438,-0.1476,-0.1476,-0.1477,-0.1477,-0.1553,-0.1555,-0.1557,0,0,0,0,0,0,0,0,0,0,0,0,0,-0.137,-0.1339,-0.1386,-0.1412,-0.1415,-0.1437,-0.1437,-0.1438,-0.1476,-0.1476,-0.1477,-0.1477,-0.1552,-0.1555,-0.1557,-0.1562,0,0,-0.1565,-0.1566,0,0,0,0,0,0,0,0,-0.1369,-0.1372,-0.1408,-0.141,-0.1414,-0.1451,-0.1449,-0.1481,-0.1476,-0.1452,-0.1477,-0.1478,-0.1521,-0.1527,-0.1534,-0.1566,-0.1569,-0.1565,-0.1567,-0.1568,-0.1569,0,0,0,0,0,0,0,-0.1366,-0.137,-0.1406,-0.1408,-0.1412,-0.1427,-0.1432,-0.1455,-0.1483,-0.1454,-0.1457,-0.1463,-0.1523,-0.1532,-0.1536,-0.157,-0.1565,-0.1568,-0.1569,-0.157,-0.1656,-0.1656,0,0,0,0,0,0,-0.1359,-0.1368,-0.1404,-0.1407,-0.1392,-0.1428,-0.1433,-0.1438,-0.1483,-0.149,-0.1463,-0.1465,-0.1527,-0.1533,-0.1539,-0.1592,-0.1568,-0.157,-0.1572,-0.1655,-0.1656,-0.1657,0,0,0,0,0,0,-0.1358,-0.1362,-0.1402,-0.1389,-0.1395,-0.1428,-0.1433,-0.1439,-0.1469,-0.1489,-0.1497,-0.1489,-0.1528,-0.1536,-0.1574,-0.1594,-0.1572,-0.1574,-0.1654,-0.1655,-0.1656,-0.167,0,0,0,0,0,0,-0.1356,-0.1361,-0.1374,-0.1389,-0.1396,-0.1427,-0.1433,-0.1439,-0.147,-0.1474,-0.1514,-0.152,-0.1529,-0.1571,-0.1577,-0.1597,-0.1576,-0.1653,-0.1655,-0.1656,-0.1668,-0.1671,-0.1674,0,0,0,0,0,-0.1354,-0.1366,-0.1374,-0.1379,-0.1409,-0.1427,-0.1433,-0.1457,-0.1471,-0.1486,-0.1512,-0.152,-0.1584,-0.1573,-0.1581,-0.1602,-0.1652,-0.1654,-0.1656,-0.1667,-0.1671,-0.1673,0,0,0,0,0,0,-0.1354,-0.1371,-0.1381,-0.1398,-0.1417,-0.1434,-0.1455,-0.1469,-0.1501,-0.1513,-0.1531,-0.1539,-0.158,-0.1589,-0.1577,-0.163,-0.1619,-0.1622,-0.1625,-0.1629,-0.1631,-0.1622,-0.1578,0,0,0,0,0,-0.1359,-0.1373,-0.1389,-0.1406,-0.1417,-0.144,-0.1456,-0.1472,-0.1496,-0.1512,-0.1538,-0.1565,-0.1588,-0.1608,-0.1629,-0.1661,-0.1646,-0.1678,-0.1681,-0.1683,-0.1681,-0.1673,-0.1674,-0.1662,-0.1662,-0.1662,0,0,-0.1365,-0.1376,-0.1386,-0.1408,-0.1426,-0.1444,-0.1452,-0.1481,-0.1502,-0.1515,-0.1561,-0.1579,-0.1599,-0.1632,-0.1651,-0.1645,-0.1677,-0.1685,-0.1687,-0.1684,-0.1674,-0.1675,-0.1676,-0.1663,-0.1663,-0.1663,0,0,-0.1374,-0.1394,-0.1406,-0.1423,-0.1451,-0.1464,-0.1476,-0.1505,-0.1527,-0.1565,-0.1578,-0.1605,-0.1649,-0.166,-0.1671,-0.1702,-0.1691,-0.1716,-0.1726,-0.1718,-0.1718,-0.1718,-0.1691,-0.1688,-0.1718,-0.1718,-0.1718,0,-0.1383,-0.1397,-0.1414,-0.1429,-0.1447,-0.1474,-0.1492,-0.1517,-0.1557,-0.1572,-0.1585,-0.1637,-0.1658,-0.1684,-0.1697,-0.1707,-0.1694,-0.1711,-0.1719,-0.1719,-0.1719,-0.1691,-0.1688,-0.1719,-0.1719,-0.1719,-0.1719,0,-0.1392,-0.1414,-0.1425,-0.1451,-0.1472,-0.1495,-0.1523,-0.1554,-0.1584,-0.1602,-0.1643,-0.1665,-0.1692,-0.1706,-0.1715,-0.1731,-0.1718,-0.1721,-0.1707,-0.1721,-0.1691,-0.1688,-0.172,-0.172,-0.172,-0.172,0,0,-0.1379,-0.1422,-0.1428,-0.1444,-0.1486,-0.15,-0.1541,-0.1573,-0.1596,-0.1637,-0.1658,-0.1701,-0.171,-0.1723,-0.1736,-0.1735,-0.1725,-0.1733,-0.1732,-0.1698,-0.1693,-0.1579,-0.1564,-0.1731,-0.1731,-0.1731,-0.1667,0,-0.1382,-0.141,-0.1434,-0.1468,-0.1483,-0.1521,-0.1552,-0.1588,-0.162,-0.1649,-0.1674,-0.1703,-0.1718,-0.1732,-0.1735,-0.1733,-0.172,-0.1741,-0.1691,-0.1689,-0.158,-0.1558,-0.1731,-0.1665,-0.1664,-0.1663,-0.1663,0,-0.1374,-0.1395,-0.1427,-0.147,-0.1482,-0.151,-0.1556,-0.1587,-0.1631,-0.1655,-0.1684,-0.1704,-0.1722,-0.1728,-0.1718,-0.1733,-0.1713,-0.1702,-0.17,-0.1585,-0.1569,-0.1652,-0.1657,-0.1658,-0.1658,-0.1658,-0.1659,0,-0.1338,-0.1387,-0.1413,-0.143,-0.1484,-0.151,-0.1543,-0.159,-0.161,-0.1658,-0.1669,-0.1698,-0.1706,-0.1701,-0.169,-0.1706,-0.1659,-0.1674,-0.1546,-0.1538,-0.1655,-0.1656,-0.1647,-0.1648,-0.1648,-0.1648,-0.1648,0,-0.1312,-0.1336,-0.1404,-0.1415,-0.1445,-0.1493,-0.1525,-0.1563,-0.1604,-0.1609,-0.1667,-0.1661,-0.17,-0.1684,-0.1676,-0.1588,-0.1644,-0.1529,-0.1508,-0.1662,-0.1664,-0.1652,-0.1653,-0.1645,-0.1646,-0.1646,-0.1647,0,-0.1259,-0.1307,-0.1338,-0.1405,-0.1428,-0.1449,-0.1507,-0.1518,-0.1573,-0.1578,-0.1591,-0.1628,-0.1602,-0.1614,-0.1592,-0.1544,-0.1493,-0.1448,-0.1592,-0.1584,-0.138,-0.1383,-0.1289,-0.1284,-0.128,-0.1277,-0.1274,0,-0.1229,-0.1243,-0.132,-0.1336,-0.1369,-0.141,-0.1428,-0.1493,-0.1497,-0.1537,-0.152,-0.1522,-0.1533,-0.1397,-0.1437,-0.1385,-0.1376,-0.1335,-0.1371,-0.1351,-0.1341,-0.1351,-0.1359,-0.1268,-0.1267,-0.1266,-0.1265,0,-0.1166,-0.1209,-0.1234,-0.1268,-0.1297,-0.1317,-0.1349,-0.134,-0.1394,-0.1459,-0.1397,-0.1367,-0.1325,-0.1306,-0.1267,-0.1243,-0.1357,-0.1293,-0.1302,-0.1336,-0.1325,-0.1321,-0.1334,-0.1251,-0.1253,-0.1254,-0.1255,0,-0.1119,-0.1122,-0.1161,-0.1178,-0.1216,-0.1203,-0.1233,-0.122,-0.1229,-0.1279,-0.1252,-0.1262,-0.1301,-0.1229,-0.1201,-0.1157,-0.1146,-0.1112,-0.113,-0.1146,-0.1131,-0.1098,-0.0916,0,0,0,0,0,-0.1061,-0.1049,-0.1062,-0.1068,-0.1105,-0.1122,-0.1165,-0.1196,-0.1251,-0.1167,-0.1203,-0.1159,-0.11,-0.1114,-0.1038,-0.1145,-0.1161,-0.1052,-0.1134,-0.1175,-0.1191,-0.1188,0,0,0,0,0,0,-0.1017,-0.1029,-0.1025,-0.0975,-0.0963,-0.0977,-0.1003,-0.1041,-0.1,-0.1065,-0.1038,-0.1084,-0.105,-0.1121,-0.1013,-0.1015,-0.104,-0.1069,-0.1065,-0.1166,-0.118,-0.1193,-0.1196,0,0,0,0,0]},{"header":{"parameterUnit":"m.s-1","parameterCategory":2,"la1":30.2991,"la2":30.254,"lo1":-89.0895,"lo2":-89.0444,"dy":0.0017,"dx":0.0017,"nx":28,"ny":28,"refTime":"2025-12-29T09:00:00:Z","depth":"4","parameterNumber":3,"parameterNumberName":"V-component_of_CURRENTS"},"data":[0,0,0,0,0,0,0,0,0,0,0,0,0,0,0,0,0,0,0,0,0,0,0,0,0,0,0,0,0,0,0,0,0,0,0,0,0,0,0,0,0,0,0,0,0,0,0,0,0,0,0,0,0,0,0,0,0,0,-0.0214,-0.0214,0,-0.0214,-0.0214,-0.0214,-0.0205,-0.0205,-0.0205,-0.0205,-0.0164,-0.0163,-0.0162,0,0,0,0,0,0,0,0,0,0,0,0,0,-0.0194,-0.0195,-0.0214,-0.0214,-0.0214,-0.0214,-0.0214,-0.0214,-0.0205,-0.0205,-0.0205,-0.0205,-0.0164,-0.0163,-0.0162,0,0,0,0,0,0,0,0,0,0,0,0,0,-0.0199,-0.0195,-0.0214,-0.021,-0.021,-0.0214,-0.0214,-0.0214,-0.0205,-0.0205,-0.0205,-0.0204,-0.0164,-0.0163,-0.0162,-0.0159,0,0,-0.0158,-0.0157,0,0,0,0,0,0,0,0,-0.0199,-0.02,-0.021,-0.021,-0.021,-0.021,-0.0192,-0.0194,-0.0205,-0.0207,-0.0205,-0.0204,-0.0176,-0.0173,-0.0174,-0.0157,-0.0156,-0.0157,-0.0157,-0.0156,-0.0156,0,0,0,0,0,0,0,-0.0198,-0.02,-0.0214,-0.021,-0.021,-0.0204,-0.0204,-0.0193,-0.0192,-0.0206,-0.0206,-0.0207,-0.0175,-0.0176,-0.0173,-0.0155,-0.0158,-0.0156,-0.0155,-0.0155,-0.0158,-0.0159,0,0,0,0,0,0,-0.02,-0.0199,-0.0214,-0.0214,-0.0204,-0.0205,-0.0205,-0.021,-0.0193,-0.019,-0.0207,-0.0206,-0.0178,-0.0175,-0.0172,-0.0187,-0.0156,-0.0155,-0.0154,-0.0157,-0.0158,-0.0159,0,0,0,0,0,0,-0.02,-0.0202,-0.0214,-0.0206,-0.0208,-0.0206,-0.0211,-0.021,-0.0213,-0.0194,-0.019,-0.0211,-0.0178,-0.0173,-0.0173,-0.0184,-0.0154,-0.0153,-0.0156,-0.0158,-0.0159,-0.0205,0,0,0,0,0,0,-0.0199,-0.0202,-0.0208,-0.0207,-0.0208,-0.0222,-0.0211,-0.021,-0.0214,-0.0213,-0.0196,-0.0192,-0.0177,-0.0176,-0.0172,-0.0182,-0.0152,-0.0155,-0.0157,-0.0159,-0.0202,-0.0208,-0.0212,0,0,0,0,0,-0.0199,-0.0209,-0.0209,-0.021,-0.0216,-0.0223,-0.0223,-0.022,-0.0215,-0.0221,-0.0214,-0.0193,-0.0184,-0.0175,-0.0171,-0.0181,-0.0154,-0.0156,-0.0158,-0.02,-0.0207,-0.0212,0,0,0,0,0,0,-0.0203,-0.0209,-0.0209,-0.022,-0.0224,-0.0221,-0.0227,-0.0224,-0.0224,-0.0223,-0.0203,-0.0199,-0.0205,-0.0188,-0.0179,-0.0188,-0.0166,-0.0167,-0.0199,-0.0205,-0.021,-0.0213,-0.0151,0,0,0,0,0,-0.0208,-0.0217,-0.022,-0.0229,-0.0232,-0.0231,-0.0233,-0.0232,-0.023,-0.023,-0.0221,-0.0212,-0.021,-0.0204,-0.0199,-0.02,-0.0171,-0.0204,-0.0209,-0.0213,-0.0214,-0.0193,-0.0195,-0.0166,-0.0166,-0.0166,0,0,-0.0212,-0.0216,-0.0222,-0.0231,-0.0233,-0.0246,-0.0232,-0.0239,-0.0252,-0.0225,-0.0239,-0.023,-0.0216,-0.0223,-0.0223,-0.0209,-0.0205,-0.0216,-0.022,-0.0218,-0.0195,-0.0198,-0.02,-0.0167,-0.0167,-0.0167,0,0,-0.0225,-0.023,-0.0242,-0.025,-0.0257,-0.0259,-0.0263,-0.0266,-0.0269,-0.028,-0.0269,-0.0268,-0.0261,-0.0255,-0.025,-0.0279,-0.0235,-0.0277,-0.0299,-0.0279,-0.0281,-0.0282,-0.0237,-0.0234,-0.0276,-0.0276,-0.0276,0,-0.023,-0.0249,-0.0247,-0.0263,-0.0274,-0.0267,-0.0286,-0.029,-0.0294,-0.0299,-0.0291,-0.029,-0.0277,-0.0283,-0.0297,-0.0289,-0.0262,-0.0277,-0.0285,-0.0285,-0.0286,-0.024,-0.0236,-0.0278,-0.0278,-0.0278,-0.0277,0,-0.0254,-0.0271,-0.028,-0.03,-0.031,-0.0325,-0.0332,-0.0342,-0.0343,-0.0344,-0.0353,-0.0339,-0.0335,-0.0334,-0.0324,-0.0327,-0.03,-0.0296,-0.0267,-0.0292,-0.0241,-0.0236,-0.0282,-0.0281,-0.028,-0.0279,0,0,-0.0258,-0.0291,-0.0295,-0.0315,-0.0333,-0.0346,-0.0367,-0.0384,-0.0397,-0.0396,-0.0407,-0.0406,-0.0392,-0.0386,-0.0371,-0.0353,-0.0332,-0.0329,-0.0327,-0.028,-0.0266,-0.0243,-0.0234,-0.0328,-0.0328,-0.0328,-0.0225,0,-0.0279,-0.0319,-0.0329,-0.0369,-0.0391,-0.0398,-0.042,-0.0433,-0.0436,-0.0444,-0.0426,-0.0431,-0.0414,-0.0411,-0.0394,-0.0355,-0.0323,-0.0359,-0.0253,-0.025,-0.0223,-0.023,-0.0327,-0.0221,-0.022,-0.0219,-0.0218,0,-0.0299,-0.0325,-0.0369,-0.041,-0.042,-0.0444,-0.0476,-0.0493,-0.0497,-0.0497,-0.0491,-0.0474,-0.0457,-0.0436,-0.0368,-0.0391,-0.0332,-0.0292,-0.0287,-0.0246,-0.0218,-0.0194,-0.0208,-0.0209,-0.021,-0.0211,-0.0211,0,-0.0307,-0.0354,-0.0393,-0.0408,-0.045,-0.0473,-0.0494,-0.051,-0.0526,-0.0527,-0.0528,-0.0504,-0.0487,-0.0428,-0.0351,-0.0358,-0.026,-0.0257,-0.017,-0.0167,-0.0197,-0.0196,-0.0195,-0.0195,-0.0195,-0.0195,-0.0195,0,-0.0324,-0.0356,-0.0403,-0.0425,-0.0473,-0.0493,-0.0534,-0.0548,-0.0561,-0.0573,-0.0555,-0.0545,-0.0486,-0.0426,-0.0353,-0.0246,-0.0257,-0.017,-0.0144,-0.0217,-0.022,-0.0192,-0.0193,-0.0191,-0.0192,-0.0193,-0.0194,0,-0.0326,-0.0357,-0.0406,-0.046,-0.048,-0.0514,-0.0563,-0.0586,-0.0594,-0.0606,-0.0606,-0.0572,-0.0495,-0.0416,-0.0307,-0.0243,-0.0146,-0.0098,-0.0165,-0.0145,-0.006,-0.0064,0.0007,0.0008,0.001,0.0011,0.0012,0,-0.0329,-0.0355,-0.0428,-0.0461,-0.049,-0.054,-0.0573,-0.0602,-0.0616,-0.0614,-0.0612,-0.0553,-0.0515,-0.0335,-0.026,-0.011,-0.0089,-0.0027,-0.0062,-0.006,-0.0041,-0.0048,-0.0055,0.0014,0.0014,0.0015,0.0015,0,-0.0332,-0.0363,-0.0403,-0.0469,-0.0518,-0.0567,-0.0609,-0.0619,-0.0638,-0.0651,-0.0596,-0.0519,-0.0425,-0.0314,-0.0197,-0.0094,-0.0071,-0.0013,-0.0015,-0.0047,-0.005,-0.0035,-0.0043,0.002,0.0019,0.0018,0.0018,0,-0.0331,-0.0361,-0.0415,-0.0471,-0.0532,-0.0571,-0.0597,-0.0604,-0.0616,-0.0607,-0.0584,-0.0497,-0.0455,-0.0303,-0.0198,-0.0098,-0.0073,-0.0036,-0.0037,-0.0041,-0.0097,-0.011,-0.0033,0,0,0,0,0,-0.0324,-0.0357,-0.0411,-0.0472,-0.053,-0.0559,-0.061,-0.0627,-0.0642,-0.0598,-0.0589,-0.0498,-0.0346,-0.0288,-0.018,-0.0178,-0.0063,-0.0048,-0.0022,0.0045,0.004,-0.0018,0,0,0,0,0,0,-0.0322,-0.0371,-0.0402,-0.0457,-0.0491,-0.0547,-0.0576,-0.0589,-0.0559,-0.0562,-0.0482,-0.0455,-0.0312,-0.04,-0.017,-0.0144,-0.0109,0.0013,0.0016,0.0048,0.0043,0.0039,-0.0022,0,0,0,0,0]}]]